CZ-6A DEB, 54577

Orbit data source: Space-Track

CZ-6A DEB, 54577 is space debris in SSO originally from a launch on Fri, 11 Nov 2022 UTC launched from the Taiyaun Space Center, China (TSC). Debris objects in space refer to the collection of defunct objects orbiting the Earth. Examples of debris include non-operational satellites, rocket bodies, and fragments generated from explosions, collisions, or faulty payload assembly.

Loading next visibility...
Identifier
54577, 2022-151MD
Orbit
SSO
Country
Flag of CNCN / PRC
Related business
Manufacturer
SAST
Mission
Spacecraft
Bus & Motor
Unknown
Mass
Unknown
Launch date (UTC)
2022-11-11 (3 years ago)
Launch vehicle
Unknown
Launch site
Taiyaun Space Center, China (TSC)
Object type
Payload
Rocket body
Debris
Shape & HBR
Unknown shape, 0.1 m
Radar Cross Section
Small (<0.1 m²)

Expand to show TLE details & history
Last TLE update: 9 hours ago

TLE from 9 hours ago
0 CZ-6A DEB
1 54577U 22151MD  25354.04130421  .00006911  00000-0  12480-2 0  9997
2 54577  98.4679  19.1397 0066821 102.6958 258.1724 14.65318786163375
Epoch: 2025-12-20T00:59Z
TLE epoch observation values (Epoch: 2025-12-20T00:59:28.683Z)
Latitude
-0.00012°
Longitude
-84.6036°
Altitude
689.001 km
Speed
7.507 km/s
True Right ascension
01h 16m 33s
True Declination
0° 00' 00"
Sunlit
Object was in daylight at epoch
Visualization orbit readout
Latitude
Unknown
Longitude
Unknown
Altitude
Unknown
Speed
Unknown
Apparent Right ascension
Unknown
Apparent Declination
Unknown
Sunlit
N/A
Visualization observer readout
Local Sidereal Time
08:34:01
Azimuth
Unknown
Elevation
Unknown
Doppler factor
Unknown
Orbital elements
Apogee altitude
720.256 km
Perigee altitude
626.021 km
Semi-major axis
7,051.276 km
Eccentricity
0.00668
Inclination
98.4679°
RAAN
19.1397°
Arg. of periapsis
102.6958°
True anomaly
257.42425°
Mean anomaly
258.1724°
Eccentric anomaly
257.79819°
Mean motion
3.66557 °/min
Orbital period
98.21 mins
BSTAR
0.001248
Loading maneuver chart data...
Computing Atmospheric mass density...
Loading historical data...
Loading historical data...
Loading historical data...
Loading historical data...
Loading historical data...
Loading historical data...
Loading historical data...

Documentation

Showing up to 5 results
|